OBJECT_NAME,OBJECT_ID,EPOCH,MEAN_MOTION,ECCENTRICITY,INCLINATION,RA_OF_ASC_NODE,ARG_OF_PERICENTER,MEAN_ANOMALY,EPHEMERIS_TYPE,CLASSIFICATION_TYPE,NORAD_CAT_ID,ELEMENT_SET_NO,REV_AT_EPOCH,BSTAR,MEAN_MOTION_DOT,MEAN_MOTION_DDOT ATLAS CENTAUR 2,1963-047A,2026-09-12T04:52:22.789056,14.12679555,.0545144,30.3560,232.7124,284.9832,69.1068,0,U,694,999,15801,.19567E-3,.1722E-4,0 THOR AGENA D R/B,1964-002A,2026-09-12T00:30:33.725952,14.34093497,.0033816,99.1140,278.4322,76.5114,283.9834,0,U,733,999,26500,.48065E-4,.87E-6,0 SL-3 R/B,1964-053B,2026-09-12T02:23:48.698016,14.61462129,.0077134,65.0765,144.6708,233.5510,125.8464,0,U,877,999,29403,.35442E-4,.57E-6,0 SL-8 R/B,1967-045B,2026-09-11T15:40:32.955744,14.45718274,.00649677,74.0137,0.7557,322.5896,37.0746,0,U,2802,999,11589,.4990861E-4,.152E-5,0 SL-8 R/B,1968-040B,2026-09-11T20:31:20.891424,15.04190728,.0022853,74.0287,292.9886,60.3731,299.9730,0,U,3230,999,11799,.13344E-3,.182E-4,0 OAO 2,1968-110A,2026-09-12T04:22:31.308384,14.47379095,.0006026,34.9939,303.9206,255.5772,104.4250,0,U,3597,999,4613,.41005E-4,.133E-5,0 ISIS 1,1969-009A,2026-09-12T02:42:02.361312,11.30448269,.1707935,88.4401,134.8569,72.7604,305.2623,0,U,3669,999,36959,.10711E-3,.173E-5,0 SERT 2,1970-009A,2026-09-12T01:28:11.599104,13.58745548,.000571,99.2865,188.1176,54.7915,315.9597,0,U,4327,999,80520,.63563E-4,.5E-7,0 SL-3 R/B,1971-028B,2026-09-12T01:57:23.010048,15.79269732,.000815,81.2300,178.8789,353.9546,6.1617,0,U,5118,999,1791,.40516E-3,.73157E-3,0 ASTEX 1,1971-089A,2026-09-11T21:40:46.835904,14.50908734,.001577,92.7094,211.8135,166.8251,193.3371,0,U,5560,999,88930,.85836E-4,.338E-5,0 SL-8 R/B,1971-119B,2026-09-11T22:26:29.162400,14.40329108,.0538265,73.8866,186.7664,115.0005,250.8041,0,U,5730,999,68228,.27842E-3,.5393E-4,0 OAO 3 (COPERNICUS),1972-065A,2026-09-12T03:26:12.543936,14.60100661,.0007131,35.0066,314.9179,248.8118,131.0262,0,U,6153,999,87346,.43088E-4,.189E-5,0 ATLAS CENTAUR R/B,1972-065B,2026-09-12T03:36:58.320000,14.78040682,.0033049,35.0017,292.6662,140.8938,219.4159,0,U,6155,999,86886,.80998E-4,.575E-5,0 SL-8 R/B,1975-112B,2026-09-11T20:19:58.970784,14.38277560,.0014645,74.0614,36.4387,79.7721,280.5084,0,U,8459,999,65863,.39582E-4,.94E-6,0 SL-3 R/B,1977-057B,2026-09-12T02:54:36.127008,15.49490319,.0005878,97.5874,76.0090,338.0117,22.0881,0,U,10114,999,69716,.1525E-3,.8298E-4,0 SEASAT 1,1978-064A,2026-09-12T04:23:01.765248,14.46286053,.0002131,108.0079,156.8993,299.8142,60.2792,0,U,10967,999,53347,.68864E-4,.109E-5,0 SL-14 R/B,1979-011B,2026-09-12T02:09:41.908032,14.92076587,.0016733,82.5211,279.6857,149.8287,210.3900,0,U,11267,999,55657,.26256E-4,.293E-5,0 SL-8 R/B,1979-089B,2026-09-12T00:55:41.342016,14.42435749,.0016564,74.0672,106.0791,232.5953,127.3696,0,U,11574,999,46297,.55807E-4,.158E-5,0 SL-14 R/B,1980-005B,2026-09-12T03:48:48.356928,14.91093664,.0014139,82.5143,130.3497,260.8873,99.0746,0,U,11672,999,50427,.30572E-4,.328E-5,0 SL-8 R/B,1981-003B,2026-09-12T00:44:58.780032,15.17132758,.0239177,82.9354,116.9105,247.0472,110.5368,0,U,12139,999,34287,.25296E-3,.10745E-3,0 SL-3 R/B,1981-046B,2026-09-12T04:00:12.441888,15.45841259,.0018015,81.2273,65.1390,87.7040,272.6267,0,U,12465,999,46720,.17722E-3,.8682E-4,0 SL-3 R/B,1981-103B,2026-09-12T03:07:51.490848,15.22881513,.0012914,81.1617,354.4334,21.8513,338.3268,0,U,12904,999,160,.11642E-3,.2759E-4,0 SL-3 R/B,1982-013B,2026-09-12T03:23:47.811840,15.23282033,.0020455,81.1731,301.9592,269.4150,90.4739,0,U,13068,999,43272,.11189E-3,.2693E-4,0 SL-3 R/B,1982-039B,2026-09-12T03:08:49.928352,15.10893487,.0032082,81.1494,0.6397,64.9282,295.5268,0,U,13154,999,40978,.7809E-4,.134E-4,0 SL-3 R/B,1982-079B,2026-09-12T04:29:47.652576,15.26454669,.0022645,81.1484,332.5260,252.1152,107.7612,0,U,13403,999,40613,.12149E-3,.3215E-4,0 SL-14 R/B,1982-092B,2026-09-12T04:50:11.329728,14.86800788,.0021363,82.5703,326.8855,45.5964,343.6118,0,U,13553,999,35664,.2754E-4,.271E-5,0 SL-3 R/B,1983-010B,2026-09-11T22:29:56.461920,15.51291966,.0015551,81.1010,132.9638,109.3886,250.9044,0,U,13819,999,38677,.19083E-3,.11283E-3,0 SL-3 R/B,1983-075B,2026-09-12T03:11:19.720032,15.41982091,.0017939,97.6115,267.2958,281.5359,78.3873,0,U,14208,999,35885,.16879E-3,.7136E-4,0 COSMOS 1536,1984-013A,2026-09-12T01:48:14.898816,15.25891486,.0013242,82.5409,282.2548,354.3226,5.7860,0,U,14699,999,30102,.16105E-3,.4169E-4,0 SL-14 R/B,1984-027B,2026-09-12T00:09:31.889376,14.86108857,.0019422,82.5385,70.2822,77.5925,282.7463,0,U,14820,999,27530,.29438E-4,.283E-5,0 SL-8 R/B,1985-006B,2026-09-12T01:11:10.693248,14.37863152,.0017605,74.0436,278.2148,150.3041,239.1170,0,U,15483,999,18081,.24742E-4,.49E-6,0 SL-12 R/B(2),1985-042D,2026-09-11T23:33:40.995072,14.22020518,.0035768,71.1076,54.1355,199.0166,297.9059,0,U,15772,999,14087,.14871E-4,-.15E-6,0 SL-14 R/B,1985-069B,2026-09-11T22:25:11.964000,14.86567802,.0017326,82.5272,209.7743,297.8720,62.0741,0,U,15945,999,20050,.32754E-4,.315E-5,0 SL-16 R/B,1985-097B,2026-09-12T01:39:44.642016,14.16621688,.0008887,71.0015,108.1660,319.3016,202.2382,0,U,16182,999,11362,-.18469E-4,-.85E-6,0 SL-14 R/B,1986-006B,2026-09-11T23:50:08.166912,14.87010836,.0076663,82.5233,84.4159,16.0500,344.3119,0,U,16496,999,17689,.33063E-4,.339E-5,0 COSMOS 1743,1986-034A,2026-09-12T00:27:22.641120,15.75714280,.0001954,82.5217,235.8086,78.8324,281.3160,0,U,16719,999,20942,.39112E-3,.60123E-3,0 SL-14 R/B,1986-046B,2026-09-12T00:49:34.389120,14.85722053,.0022354,82.4783,264.1128,335.7411,24.2750,0,U,16792,999,15407,.29698E-4,.283E-5,0 SL-14 R/B,1986-055B,2026-09-12T03:39:44.570016,14.85774840,.0020366,82.5210,311.3775,76.5001,313.4094,0,U,16882,999,14705,.26406E-4,.255E-5,0 AJISAI (EGS),1986-061A,2026-09-12T04:51:27.338400,12.44517379,.0011307,50.0073,239.8267,41.8797,91.6356,0,U,16908,999,49122,-.10079E-3,-.112E-5,0 SL-14 R/B,1987-024B,2026-09-12T01:37:08.340096,14.86264164,.0018356,82.5250,277.5936,8.5057,351.6467,0,U,17567,999,11581,.27627E-4,.268E-5,0 COSMOS 1833,1987-027A,2026-09-12T00:53:45.991104,14.13050849,.0027063,70.9174,294.3259,282.6232,77.1863,0,U,17589,999,3664,-.14354E-3,-.317E-5,0 SL-16 R/B,1987-027B,2026-09-12T00:49:29.159328,14.17183474,.0006158,71.0004,243.8137,218.6509,141.4175,0,U,17590,999,4174,-.55188E-4,-.159E-5,0 SL-14 R/B,1987-038B,2026-09-12T02:11:11.317344,14.85494844,.0017696,82.5002,121.2218,268.5731,91.3457,0,U,17912,999,10690,.25399E-4,.244E-5,0 COSMOS 1844,1987-041A,2026-09-12T05:25:30.919584,14.14581601,.0028327,70.9018,0.7111,103.1492,257.2793,0,U,17973,999,2996,-.1227E-3,-.285E-5,0 SL-14 R/B,1987-055B,2026-09-12T04:04:39.126720,14.85757747,.0022001,82.5022,173.2350,114.9559,245.3946,0,U,18153,999,9762,.29175E-4,.279E-5,0 COSMOS 1867,1987-060A,2026-09-12T02:38:09.853728,14.31523530,.0018443,65.0103,144.6260,281.0197,78.8813,0,U,18187,999,4662,.24787E-4,-.34E-6,0 SL-14 R/B,1988-001B,2026-09-11T20:11:05.646912,14.85658135,.0017605,82.5152,20.2287,347.5841,12.4939,0,U,18749,999,6966,.29698E-4,.282E-5,0 COSMOS 1933,1988-020A,2026-09-12T04:36:07.445376,15.19187308,.0002524,82.5098,66.2268,272.2146,87.8799,0,U,18958,999,7853,.1004E-3,.2142E-4,0 SL-3 R/B,1988-032B,2026-09-12T03:23:24.844992,15.21442761,.002365,97.5351,238.1739,305.8929,54.0111,0,U,19046,999,8044,.14175E-3,.3134E-4,0 SL-16 R/B,1988-039B,2026-09-11T17:14:43.176192,14.19636885,.0020092,71.0157,35.1828,50.5661,309.7238,0,U,19120,999,98478,.82779E-4,.127E-5,0 COSMOS 1953,1988-050A,2026-09-12T04:04:20.216352,15.31039723,.0010749,82.5100,330.2529,176.2585,183.8738,0,U,19210,999,6629,.19227E-3,.5807E-4,0 SL-8 R/B,1988-053B,2026-09-12T03:15:27.929088,14.38993903,.0021183,74.0468,128.7817,263.2309,259.0083,0,U,19257,999,330,.5598E-4,.147E-5,0 COSMOS 1975,1988-093A,2026-09-11T13:25:35.858784,15.30284520,.00097882,82.5167,290.7647,226.0069,134.0366,0,U,19573,999,4781,.15464707E-3,.4568E-4,0 SL-14 R/B,1988-093B,2026-09-12T00:23:51.007776,14.85788123,.0021673,82.5293,227.1177,138.1659,288.0039,0,U,19574,999,2868,.29991E-4,.286E-5,0 SL-16 R/B,1988-102B,2026-09-12T00:38:13.672896,14.16171403,.0012118,70.9981,119.4206,86.4108,273.8401,0,U,19650,999,95327,.14693E-3,.243E-5,0 INTERCOSMOS 24,1989-080A,2026-09-12T05:17:20.964192,12.59726636,.1186574,82.6117,342.9929,219.8135,130.9816,0,U,20261,999,69028,.19195E-3,.655E-5,0 SL-14 R/B,1989-080C,2026-09-11T17:32:12.270048,12.50602816,.12302301,82.5908,53.6897,119.4658,253.4837,0,U,20262,999,68340,.72633996E-4,.273E-5,0 DELTA 1 R/B,1989-089B,2026-09-11T23:38:36.267072,14.50773235,.0067549,97.0661,72.6709,253.3548,106.0227,0,U,20323,999,92274,.52397E-4,.176E-5,0 ARIANE 40 R/B,1990-005H,2026-09-12T02:41:54.045312,14.39961962,.0010171,98.2874,309.9892,11.0306,349.1104,0,U,20443,999,91963,.52861E-4,.124E-5,0 DELTA 2 R/B(1),1990-008B,2026-09-11T13:13:36.477696,15.91527146,.00278191,35.5947,10.0168,220.5427,139.3247,0,U,20453,999,95535,.73296589E-3,.257105E-2,.25703396E-4 COSMOS 2058,1990-010A,2026-09-11T22:48:08.453376,15.12413357,.0011331,82.4654,223.7567,58.1604,302.0728,0,U,20465,999,97038,.13201E-3,.2324E-4,0 SL-14 R/B,1990-010B,2026-09-12T00:47:54.628224,14.83691008,.0020895,82.4987,92.3789,48.6337,311.6670,0,U,20466,999,95611,.27503E-4,.252E-5,0 SL-14 R/B,1990-018B,2026-09-11T21:25:49.572768,14.82261821,.0015695,82.5200,49.0395,194.4472,165.6296,0,U,20511,999,95016,.31921E-4,.279E-5,0 HST,1990-037B,2026-09-12T03:41:35.033280,15.31622004,.0001774,28.4729,205.7820,38.6042,321.4681,0,U,20580,999,80191,.16027E-3,.5271E-4,0 SL-16 R/B,1990-046B,2026-09-12T00:56:55.640832,14.15034840,.001364,70.9972,266.5369,10.9388,349.2029,0,U,20625,999,87475,-.55729E-4,-.156E-5,0 COSMOS 2084,1990-055A,2026-09-11T23:05:35.769120,15.06415454,.0016615,62.7885,59.8410,347.6923,12.3769,0,U,20663,999,96437,.1165E-3,.1525E-4,0 SL-6 R/B(2),1990-055D,2026-09-12T04:56:34.986336,15.04272207,.0054184,62.7831,339.1909,16.3498,343.9334,0,U,20666,999,96624,.82163E-4,.972E-5,0 SL-8 R/B,1990-078B,2026-09-12T00:15:23.469984,14.94864561,.0341866,82.8970,82.9994,103.8210,260.1297,0,U,20775,999,83708,.36086E-3,.13253E-3,0 SL-8 R/B,1991-006B,2026-09-12T04:13:17.713344,13.77522088,.0021432,82.9435,31.2964,230.3811,302.0773,0,U,21088,999,78974,.85695E-4,.101E-5,0 OKEAN-3,1991-039A,2026-09-12T03:23:48.543648,15.05662189,.0015548,82.5189,156.0507,56.4070,303.8639,0,U,21397,999,89308,.16443E-3,.2408E-4,0 COSMOS 2151,1991-042A,2026-09-12T03:35:03.700896,15.00631855,.0013259,82.4927,263.7464,142.6737,217.5411,0,U,21422,999,89115,.67987E-4,.888E-5,0 SL-14 R/B,1991-042B,2026-09-12T02:53:33.732384,14.81944762,.0016757,82.4921,45.3477,353.6242,6.4756,0,U,21423,999,88068,.2736E-4,.24E-5,0 ERS-1,1991-050A,2026-09-12T01:08:56.419008,14.39563394,.0032041,98.7782,277.8621,11.3406,348.8497,0,U,21574,999,84254,.77557E-4,.197E-5,0 ARIANE 40 R/B,1991-050F,2026-09-12T03:24:32.215392,14.42999221,.0002396,98.1798,300.1394,205.8505,154.2566,0,U,21610,999,84588,.66708E-4,.182E-5,0 INTERCOSMOS 25,1991-086A,2026-09-11T20:38:08.931840,12.12327278,.1485522,82.6063,197.3814,75.4374,300.6347,0,U,21819,999,51924,.24856E-3,.1307E-4,0 SL-8 R/B,1992-008B,2026-09-12T02:43:01.116768,13.75991805,.0034256,82.9267,129.1688,336.1453,178.0759,0,U,21876,999,73505,.10608E-3,.118E-5,0 SL-8 R/B,1992-020B,2026-09-11T20:12:39.447072,13.75559572,.0030057,82.9338,15.4764,136.4169,336.0177,0,U,21938,999,72672,.61996E-4,.75E-6,0 USA 81,1992-023A,2026-09-11T21:30:15.109344,14.32416906,.0002338,85.0100,23.9433,110.5189,249.6254,0,U,21949,999,12144,.33808E-4,.111E-5,0 COSMOS 2219,1992-076A,2026-09-12T04:44:08.924064,14.14113680,.0020711,71.0638,348.1758,275.2296,84.6463,0,U,22219,999,74474,-.77843E-4,-.196E-5,0 SL-16 R/B,1992-076B,2026-09-12T04:02:21.463872,14.16879614,.0012638,71.0002,155.5531,180.8200,339.4664,0,U,22220,999,74824,.25426E-4,.3E-7,0 COSMOS 2221,1992-080A,2026-09-11T23:42:07.393248,14.96737170,.0012777,82.5006,100.5912,288.4360,71.5473,0,U,22236,999,80865,.85129E-4,.1E-4,0 SL-16 R/B,1992-093B,2026-09-12T03:58:26.767776,14.15474202,.0004094,71.0242,332.7947,350.4000,9.7044,0,U,22285,999,73954,.2668E-4,.5E-7,0 COSMOS 2228,1992-094A,2026-09-12T03:23:51.189216,14.97818841,.00186,82.5156,58.7189,37.7239,322.5284,0,U,22286,999,80396,.10883E-3,.131E-4,0 SL-16 R/B,1993-016B,2026-09-12T02:01:15.502944,14.15317335,.0008998,71.0077,183.6937,27.5576,332.6022,0,U,22566,999,72854,-.10733E-3,-.257E-5,0 COSMOS 2242,1993-024A,2026-09-12T00:10:41.551104,14.97121180,.0017127,82.5152,88.4602,42.1808,318.0728,0,U,22626,999,80826,.93185E-4,.1105E-4,0 SL-16 R/B,1993-059B,2026-09-11T14:20:35.001312,14.17256941,.00194384,70.9928,339.0748,285.0635,74.8337,0,U,22803,999,70587,-.7924013E-4,-.209E-5,0 ARIANE 40 R/B,1993-061H,2026-09-12T03:22:33.337632,14.32936318,.0011913,98.4740,320.1576,92.6768,267.5780,0,U,22830,999,72080,.51422E-4,.98E-6,0 COSMOS 2278,1994-023A,2026-09-12T02:15:47.443104,14.14404016,.0006977,71.0531,145.0946,107.9937,252.1947,0,U,23087,999,67116,.21219E-3,.359E-5,0 SL-16 R/B,1994-023B,2026-09-12T03:04:11.481024,14.15033996,.0003755,71.0012,39.3426,334.2696,25.8240,0,U,23088,999,67246,-.84533E-4,-.211E-5,0 SL-16 R/B,1994-074B,2026-09-12T02:48:04.460256,14.79563783,.0006066,97.6962,278.2035,347.0585,57.9390,0,U,23343,999,71481,.40893E-4,.257E-5,0 SL-16 R/B,1994-077B,2026-09-12T04:16:38.323776,14.15580746,.0004872,70.9840,320.1462,256.3190,103.7390,0,U,23405,999,64262,-.95961E-4,-.236E-5,0 ARIANE 40+ R/B,1995-021B,2026-09-12T04:33:06.019200,14.39871470,.0005684,98.4338,323.9764,308.9376,74.4796,0,U,23561,999,64608,.61309E-4,.149E-5,0 SL-16 R/B,1995-058B,2026-09-12T02:57:50.255712,14.15514258,.0013358,71.0211,148.8345,204.6742,155.3743,0,U,23705,999,59423,-.45198E-4,-.136E-5,0 SL-16 R/B,1996-051B,2026-09-12T01:37:30.824832,14.12478844,.001905,70.7685,140.8015,225.3195,134.6373,0,U,24298,999,54796,.11622E-3,.166E-5,0 ORBVIEW 2 (SEASTAR),1997-037A,2026-09-12T00:04:54.249888,14.35589610,.0001526,98.8778,64.4772,206.1798,153.9309,0,U,24883,999,53520,.60083E-4,.126E-5,0 SL-16 R/B,1998-043G,2026-09-11T20:56:53.293056,14.26080480,.0009549,98.8458,209.8127,188.7839,171.3174,0,U,25400,999,46552,.26038E-4,.17E-6,0 SL-16 R/B,1998-045B,2026-09-12T02:43:33.045024,14.16210149,.0005329,71.0111,149.5229,105.4058,254.7654,0,U,25407,999,45349,.1046E-3,.16E-5,0 ISS (ZARYA),1998-067A,2026-09-12T03:26:27.458304,15.49086104,.0004961,51.6305,229.7248,131.0693,229.0724,0,U,25544,999,58523,.9835E-4,.4988E-4,0 CZ-4B R/B,1999-025C,2026-09-12T02:45:49.919040,14.18294957,.0037405,98.6415,294.7368,166.8466,215.3076,0,U,25732,999,41459,.25372E-4,.1E-6,0 OKEAN-O,1999-039A,2026-09-12T03:03:07.913088,14.80550146,.0001961,97.9230,312.8902,91.2818,268.8619,0,U,25860,999,46197,.54221E-4,.364E-5,0 SL-16 R/B,1999-039B,2026-09-12T03:15:50.671296,14.81917288,.0015097,97.9750,313.7127,17.5763,342.5969,0,U,25861,999,46447,.45171E-4,.304E-5,0 DELTA 2 R/B,1999-041E,2026-09-12T02:04:48.732960,14.12244374,.0500623,51.7616,276.5256,178.5941,181.6535,0,U,25876,999,38936,.12663E-3,.548E-5,0 HELIOS 1B,1999-064A,2026-09-12T04:30:24.827040,14.88194658,.0001823,98.1515,162.8116,121.4884,238.6510,0,U,25977,999,71299,.10363E-3,.897E-5,0 TERRA,1999-068A,2026-09-12T04:42:12.379968,14.61158656,.0001557,97.9374,301.2580,353.5066,78.9055,0,U,25994,999,42231,.55701E-4,.23E-5,0 SL-16 R/B,2000-006B,2026-09-11T18:04:40.950336,14.15843110,.0018766,71.0011,66.6027,259.7257,100.1750,0,U,26070,999,37489,-.71194708E-4,-.188E-5,0 TITAN 4B R/B,2000-047B,2026-09-12T03:23:04.941024,15.10593693,.0042144,67.9856,235.7349,198.2337,161.7305,0,U,26474,999,42106,.11579E-3,.1815E-4,0 ENVISAT,2002-009A,2026-09-11T20:59:36.329856,14.39081544,.00011883,98.3914,204.2901,90.5615,288.8140,0,U,27386,999,28595,.2777228E-4,.43E-6,0 IDEFIX & ARIANE 42P R/B,2002-021B,2026-09-11T19:49:08.935104,14.31115210,.0012022,98.5974,191.3807,5.5254,354.6059,0,U,27422,999,27064,.663E-4,.131E-5,0 AQUA,2002-022A,2026-09-12T05:39:22.159296,14.62198310,.0001638,98.4385,226.3026,70.0506,346.6067,0,U,27424,999,29599,.10895E-3,.499E-5,0 CZ-4B R/B,2002-024C,2026-09-12T02:14:37.769280,14.14574908,.0049592,98.8616,307.3148,212.3231,177.5150,0,U,27432,999,25559,.30882E-4,.16E-6,0 MIDORI II (ADEOS-II),2002-056A,2026-09-12T03:34:18.683040,14.29387368,.0001489,98.7977,215.1870,125.7101,234.4219,0,U,27597,999,23693,.76565E-4,.15E-5,0 H-2A R/B,2002-056E,2026-09-11T21:24:26.748864,14.33860742,.0069552,98.3404,208.4407,327.9055,94.8485,0,U,27601,999,24079,.75987E-4,.175E-5,0 CZ-4B R/B,2003-049C,2026-09-12T00:14:14.198784,14.55149380,.0048577,98.6955,257.3372,24.4205,335.9277,0,U,28059,999,21369,.67714E-4,.245E-5,0 CZ-2C R/B,2004-012C,2026-09-12T00:13:36.275232,16.22269665,.0011311,97.7019,342.6311,262.6304,97.3700,0,U,28222,999,23371,.60587E-3,.1374897E-1,.26304E-5 SL-16 R/B,2004-021B,2026-09-12T03:16:52.341024,14.14619623,.0002977,71.0002,201.2101,136.1006,224.0353,0,U,28353,999,14920,-.12215E-3,-.282E-5,0 CZ-4B R/B,2004-035C,2026-09-12T01:11:54.014208,15.31722073,.0030822,97.3316,287.1852,28.7663,331.5270,0,U,28415,999,20841,.18141E-3,.5558E-4,0 CZ-2C R/B,2004-046B,2026-09-12T03:14:11.902272,14.27050873,.0138656,98.1839,158.4364,323.8876,35.3001,0,U,28480,999,13509,.52579E-4,.99E-6,0 ARIANE 5 R/B,2004-049H,2026-09-12T00:32:24.421632,14.85554899,.0084953,98.2788,70.6791,106.9462,254.1085,0,U,28499,999,17345,.65782E-4,.542E-5,0 CZ-2D R/B,2005-024B,2026-09-12T00:24:30.902976,15.81002166,.0004077,97.3411,279.4533,84.0438,276.1294,0,U,28738,999,16900,.42973E-3,.83712E-3,0 ALOS (DAICHI),2006-002A,2026-09-12T03:24:12.314016,14.70210878,.0002181,98.1413,210.4833,77.0945,283.0504,0,U,28931,999,10087,.1635E-3,.935E-5,0 H-2A R/B,2006-002B,2026-09-12T00:41:51.960768,15.19126894,.0048822,98.2660,58.8466,327.5131,32.3098,0,U,28932,999,12270,.19262E-3,.4087E-4,0 RESURS-DK 1,2006-021A,2026-09-12T00:26:53.437056,15.13503876,.0005502,69.9301,114.7291,216.5050,143.5742,0,U,29228,999,11571,.91188E-4,.1528E-4,0 CZ-4B R/B,2006-046C,2026-09-12T01:29:02.507712,15.18380428,.0031542,97.5375,299.3970,343.3776,16.6421,0,U,29507,999,8831,.14175E-3,.2879E-4,0 CZ-2C R/B,2007-010B,2026-09-11T23:50:31.939008,14.20293718,.006007,98.4144,359.1185,112.2929,248.4633,0,U,31114,999,615,.39605E-4,.46E-6,0 COSMO-SKYMED 1,2007-023A,2026-09-12T03:31:08.380992,14.97431913,.0001547,97.8832,87.7566,93.8770,266.2628,0,U,31598,999,4280,.17051E-3,.1924E-4,0 COSMOS 2428,2007-029A,2026-09-12T00:12:59.829120,14.12975960,.0010489,70.9441,172.2041,334.2659,25.7939,0,U,31792,999,99041,.63694E-4,.71E-6,0 SL-16 R/B,2007-029B,2026-09-12T02:08:04.987104,14.14864553,.0002062,70.9761,140.5518,278.8618,239.1833,0,U,31793,999,99173,-.50279E-6,-.49E-6,0 KORONAS-FOTON,2009-003A,2026-09-12T00:49:48.423072,15.47437187,.0009299,82.4255,81.5302,193.5200,166.5801,0,U,33504,999,97452,.19583E-3,.10089E-3,0 CZ-2C R/B,2011-030B,2026-09-12T03:44:20.027040,14.81616514,.0053586,97.8744,209.0193,102.9571,269.2182,0,U,37731,999,81770,.93067E-4,.695E-5,0 H-2A R/B,2012-025E,2026-09-11T21:56:33.518976,14.96039350,.0045159,98.4934,237.2749,63.9235,296.6622,0,U,38341,999,77605,.19252E-3,.2135E-4,0 SHIJIAN-16 (SJ-16),2013-057A,2026-09-12T05:39:13.446720,14.92768162,.0015447,74.9728,191.7922,14.8686,345.2953,0,U,39358,999,69933,.64291E-4,.636E-5,0 SL-4 R/B,2014-021B,2026-09-12T01:21:37.914048,15.43755730,.0087874,51.6045,144.6691,65.3477,295.6629,0,U,39679,999,68502,.24844E-3,.12729E-3,0 ALOS-2,2014-029A,2026-09-12T06:00:24.231744,14.79469386,.0001519,97.9232,351.1675,92.8347,267.3038,0,U,39766,999,66445,.16657E-3,.1193E-4,0 YAOGAN-29,2015-069A,2026-09-12T05:02:10.994208,14.83142060,.0002938,97.9994,283.9648,92.6348,267.5202,0,U,41038,999,58352,-.21194E-6,-.56E-6,0 ASTRO-H (HITOMI),2016-012A,2026-09-11T23:39:43.340256,15.10852019,.0009344,30.9981,233.4607,46.7519,313.3898,0,U,41337,999,58042,.11586E-3,.2072E-4,0 HXMT (HUIYAN),2017-034A,2026-09-12T03:23:18.873888,15.19110868,.0031975,43.0145,58.6158,334.7522,25.1763,0,U,42758,999,51088,.17389E-3,.352E-4,0 SAOCOM 1A,2018-076A,2026-09-12T03:46:14.292768,14.82144813,.0001417,97.8891,80.6553,85.2023,274.9352,0,U,43641,999,42898,.47828E-4,.328E-5,0 H-2A R/B,2018-084L,2026-09-12T04:56:05.074656,15.48275798,.0022886,98.8432,153.2819,92.3095,268.0772,0,U,43682,999,43457,.34196E-3,.18126E-3,0 SAOCOM 1B,2020-059A,2026-09-12T06:08:25.890144,14.82144326,.0001357,97.8907,79.8536,87.5558,272.5811,0,U,46265,999,32638,.3146E-4,.198E-5,0 CSS (TIANHE),2021-035A,2026-09-12T03:38:29.096160,15.59839597,.0002631,41.4683,154.0266,272.9241,87.1296,0,U,48274,999,30674,.21733E-3,.17671E-3,0 COSMOS 2550,2021-056A,2026-09-11T18:00:12.801888,15.33839953,.0008356,67.1430,198.0512,268.2637,91.7560,0,U,48865,999,29199,.12582601E-3,.3951E-4,0 CZ-2C R/B,2022-058K,2026-09-11T12:06:32.721696,15.68221138,.00300452,50.1828,72.2800,271.5210,88.2325,0,U,52794,999,23916,.39235835E-3,.45634E-3,0 CZ-2C R/B,2022-132E,2026-09-12T00:12:30.824640,15.83844539,.0013333,97.2868,266.6569,107.6455,252.6271,0,U,54039,999,21963,.41735E-3,.93423E-3,0 GSLV R/B,2022-138AN,2026-09-11T23:47:55.250880,14.97573495,.002064,87.3741,103.8055,187.0134,173.0812,0,U,54149,999,21180,.13371E-3,.1596E-4,0 XRISM,2023-137A,2026-09-12T02:05:54.316608,15.13091505,.0007291,31.0015,156.4148,122.0861,238.0486,0,U,57800,999,16603,.2158E-3,.4015E-4,0 ACS3,2024-077B,2026-09-12T03:35:55.208256,13.97419050,.0081802,97.2156,154.9404,333.2396,26.4562,0,U,59588,999,12017,.15252E-1,.22069E-3,0 SPACEMOBILE-003,2024-163A,2026-09-12T00:53:00.311424,15.20473836,.0005746,52.9679,270.1109,29.3808,330.7508,0,U,61045,999,11098,.22551E-4,.172E-5,0 SPACEMOBILE-005,2024-163B,2026-09-11T10:18:34.992288,15.20508736,.0008591,52.9763,272.8936,18.8952,341.2359,0,U,61046,999,11088,.90749113E-4,.1683E-4,0 SPACEMOBILE-001,2024-163C,2026-09-11T18:10:31.891584,15.20468465,.0007261,52.9735,271.0728,29.9931,330.1477,0,U,61047,999,11093,-.21315E-4,-.799E-5,0 SPACEMOBILE-002,2024-163D,2026-09-12T01:42:23.454720,15.20683588,.0007226,52.9654,269.6998,61.5886,298.5835,0,U,61048,999,11098,.53072E-3,.11507E-3,0 SPACEMOBILE-004,2024-163E,2026-09-12T01:16:24.335616,15.20535206,.0009118,52.9718,269.5436,52.3318,307.8502,0,U,61049,999,11098,.50808E-3,.10956E-3,0 CZ-8A R/B,2025-231K,2026-09-11T16:42:31.055328,14.30180475,.01167753,50.0047,31.2498,168.8013,191.5542,0,U,66004,999,4732,.72483881E-4,.39E-6,0 SZ-21 MODULE,2025-246C,2026-09-12T01:00:48.843072,15.84902372,.0012068,41.4697,123.1786,281.0811,78.8679,0,U,66515,999,4748,.26718E-3,.64969E-3,0 SPACEMOBILE-006,2025-309A,2026-09-11T20:14:45.244608,15.18875725,.00116573,52.9946,294.6104,45.2831,314.9110,0,U,67232,999,3976,.97534718E-4,.1738E-4,0 SPACEMOBILE-008,2026-139A,2026-09-11T22:44:56.478624,15.12965972,.0002849,52.9944,228.6278,213.2062,146.8750,0,U,69589,999,1311,.98793E-4,.1462E-4,0 SPACEMOBILE-009,2026-139B,2026-09-11T08:37:25.192704,15.12858068,.0003193,52.9934,231.3541,206.7153,153.3674,0,U,69590,999,1302,.97619226E-4,.1436E-4,0 SPACEMOBILE-010,2026-139C,2026-09-11T15:11:00.607488,15.12716125,.00035332,52.9939,230.2149,196.5204,163.5672,0,U,69591,999,1307,.82687691E-4,.1165E-4,0